Meteo orario Al-Ladikija

Oggi, 21 Ottobre, Mercoledi

Tempo Temperatura Precipitazioni Vento Pressione Umidità
00:00 +24°C° 0 mm 3 m/s 760 mm Hg 49%
01:00 +24°C° 0 mm 3 m/s 759 mm Hg 52%
02:00 +24°C° 0 mm 3 m/s 759 mm Hg 50%
03:00 +24°C° 0 mm 3 m/s 759 mm Hg 48%
04:00 +24°C° 0 mm 3 m/s 759 mm Hg 45%
05:00 +24°C° 0 mm 2 m/s 760 mm Hg 43%
06:00 +25°C° 0 mm 2 m/s 760 mm Hg 39%
07:00 +27°C° 0 mm 2 m/s 760 mm Hg 35%
08:00 +29°C° 0 mm 2 m/s 760 mm Hg 31%
09:00 +31°C° 0 mm 2 m/s 760 mm Hg 29%
10:00 +33°C° 0 mm 3 m/s 760 mm Hg 26%
11:00 +35°C° 0 mm 3 m/s 760 mm Hg 24%
12:00 +35°C° 0 mm 4 m/s 760 mm Hg 26%
13:00 +34°C° 0 mm 4 m/s 759 mm Hg 28%
14:00 +34°C° 0 mm 5 m/s 759 mm Hg 31%
15:00 +32°C° 0 mm 5 m/s 759 mm Hg 48%
16:00 +28°C° 0 mm 5 m/s 759 mm Hg 66%
17:00 +25°C° 0 mm 5 m/s 759 mm Hg 83%
18:00 +25°C° 0 mm 3 m/s 760 mm Hg 86%
19:00 +24°C° 0 mm 2 m/s 760 mm Hg 89%
20:00 +23°C° 0 mm 1 m/s 760 mm Hg 91%
21:00 +23°C° 0 mm 1 m/s 760 mm Hg 89%
22:00 +23°C° 0 mm 2 m/s 761 mm Hg 88%
23:00 +23°C° 0 mm 2 m/s 761 mm Hg 86%

Domani, 22 Ottobre, Giovedi

Tempo Temperatura Precipitazioni Vento Pressione Umidità
00:00 +23°C° 0 mm 2 m/s 761 mm Hg 84%
01:00 +23°C° 0 mm 2 m/s 761 mm Hg 82%
02:00 +23°C° 0 mm 2 m/s 760 mm Hg 81%
03:00 +23°C° 0 mm 2 m/s 760 mm Hg 80%
04:00 +21°C° 0 mm 2 m/s 761 mm Hg 80%
05:00 +21°C° 0 mm 2 m/s 761 mm Hg 80%
06:00 +24°C° 0 mm 2 m/s 761 mm Hg 74%
07:00 +26°C° 0 mm 2 m/s 761 mm Hg 69%
08:00 +27°C° 0 mm 2 m/s 761 mm Hg 63%
09:00 +29°C° 0 mm 3 m/s 761 mm Hg 56%
10:00 +30°C° 0 mm 4 m/s 761 mm Hg 49%
11:00 +32°C° 0 mm 4 m/s 761 mm Hg 41%
12:00 +32°C° 0 mm 4 m/s 761 mm Hg 43%
13:00 +32°C° 0 mm 4 m/s 761 mm Hg 44%
14:00 +32°C° 0 mm 4 m/s 760 mm Hg 46%
15:00 +29°C° 0 mm 3 m/s 760 mm Hg 51%
16:00 +27°C° 0 mm 2 m/s 760 mm Hg 55%
17:00 +25°C° 0 mm 2 m/s 760 mm Hg 60%
18:00 +25°C° 0 mm 2 m/s 760 mm Hg 62%
19:00 +24°C° 0 mm 2 m/s 760 mm Hg 63%
20:00 +23°C° 0 mm 1 m/s 761 mm Hg 65%
21:00 +23°C° 0 mm 2 m/s 761 mm Hg 62%
22:00 +23°C° 0 mm 2 m/s 761 mm Hg 59%
23:00 +23°C° 0 mm 2 m/s 761 mm Hg 57%

Dopodomani, 23 Ottobre, Venerdi

Tempo Temperatura Precipitazioni Vento Pressione Umidità
00:00 +23°C° 0 mm 2 m/s 760 mm Hg 53%
01:00 +23°C° 0 mm 2 m/s 760 mm Hg 50%
02:00 +23°C° 0 mm 2 m/s 760 mm Hg 46%
03:00 +23°C° 0 mm 2 m/s 760 mm Hg 44%
04:00 +23°C° 0 mm 2 m/s 760 mm Hg 41%
05:00 +23°C° 0 mm 2 m/s 760 mm Hg 39%
06:00 +25°C° 0 mm 3 m/s 760 mm Hg 35%
07:00 +27°C° 0 mm 3 m/s 760 mm Hg 31%
08:00 +29°C° 0 mm 3 m/s 760 mm Hg 26%
09:00 +31°C° 0 mm 3 m/s 760 mm Hg 24%
10:00 +34°C° 0 mm 4 m/s 760 mm Hg 21%
11:00 +36°C° 0 mm 4 m/s 760 mm Hg 19%
12:00 +37°C° 0 mm 5 m/s 759 mm Hg 19%
13:00 +37°C° 0 mm 5 m/s 759 mm Hg 19%
14:00 +38°C° 0 mm 6 m/s 758 mm Hg 19%
15:00 +35°C° 0 mm 5 m/s 758 mm Hg 25%
16:00 +32°C° 0 mm 5 m/s 758 mm Hg 30%
17:00 +29°C° 0 mm 4 m/s 758 mm Hg 35%
18:00 +28°C° 0 mm 4 m/s 758 mm Hg 33%
19:00 +28°C° 0 mm 4 m/s 758 mm Hg 31%
20:00 +28°C° 0 mm 4 m/s 758 mm Hg 29%
21:00 +27°C° 0 mm 3 m/s 758 mm Hg 29%
22:00 +27°C° 0 mm 3 m/s 758 mm Hg 29%
23:00 +27°C° 0 mm 3 m/s 758 mm Hg 29%

24 Ottobre, Sabato

Tempo Temperatura Precipitazioni Vento Pressione Umidità
00:00 +27°C° 0 mm 3 m/s 758 mm Hg 29%
01:00 +26°C° 0 mm 3 m/s 757 mm Hg 29%
02:00 +26°C° 0 mm 3 m/s 757 mm Hg 29%
03:00 +25°C° 0 mm 3 m/s 757 mm Hg 29%
04:00 +25°C° 0 mm 3 m/s 757 mm Hg 29%
05:00 +23°C° 0 mm 4 m/s 757 mm Hg 30%
06:00 +26°C° 0 mm 3 m/s 757 mm Hg 26%
07:00 +28°C° 0 mm 3 m/s 757 mm Hg 22%
08:00 +30°C° 0 mm 2 m/s 757 mm Hg 19%
09:00 +32°C° 0 mm 2 m/s 757 mm Hg 16%
10:00 +36°C° 0 mm 2 m/s 757 mm Hg 14%
11:00 +38°C° 0 mm 2 m/s 757 mm Hg 11%
12:00 +38°C° 0 mm 2 m/s 756 mm Hg 11%
13:00 +38°C° 0 mm 2 m/s 756 mm Hg 12%
14:00 +38°C° 0 mm 3 m/s 756 mm Hg 12%
15:00 +35°C° 0 mm 2 m/s 756 mm Hg 19%
16:00 +31°C° 0 mm 1 m/s 756 mm Hg 26%
17:00 +28°C° 0 mm 1 m/s 756 mm Hg 32%
18:00 +27°C° 0 mm 1 m/s 756 mm Hg 32%
19:00 +27°C° 0 mm 2 m/s 757 mm Hg 33%
20:00 +26°C° 0 mm 3 m/s 757 mm Hg 33%
21:00 +26°C° 0 mm 2 m/s 757 mm Hg 36%
22:00 +25°C° 0 mm 2 m/s 757 mm Hg 40%
23:00 +25°C° 0 mm 1 m/s 757 mm Hg 44%

25 Ottobre, Domenica

Tempo Temperatura Precipitazioni Vento Pressione Umidità
00:00 +25°C° 0 mm 2 m/s 757 mm Hg 43%
01:00 +25°C° 0 mm 2 m/s 756 mm Hg 43%
02:00 +25°C° 0 mm 2 m/s 756 mm Hg 42%
03:00 +25°C° 0 mm 2 m/s 756 mm Hg 38%
04:00 +25°C° 0 mm 2 m/s 756 mm Hg 34%
05:00 +25°C° 0 mm 2 m/s 756 mm Hg 30%
06:00 +27°C° 0 mm 2 m/s 756 mm Hg 28%
07:00 +28°C° 0 mm 2 m/s 757 mm Hg 26%
08:00 +30°C° 0 mm 2 m/s 757 mm Hg 23%
09:00 +30°C° 0 mm 3 m/s 757 mm Hg 26%
10:00 +31°C° 0 mm 3 m/s 757 mm Hg 29%
11:00 +33°C° 0 mm 4 m/s 756 mm Hg 31%
12:00 +33°C° 0 mm 3 m/s 756 mm Hg 33%
13:00 +33°C° 0 mm 3 m/s 756 mm Hg 35%
14:00 +32°C° 0 mm 2 m/s 755 mm Hg 37%
15:00 +30°C° 0 mm 2 m/s 755 mm Hg 44%
16:00 +28°C° 0 mm 2 m/s 755 mm Hg 51%
17:00 +26°C° 0 mm 1 m/s 755 mm Hg 58%
18:00 +26°C° 0 mm 1 m/s 756 mm Hg 60%
19:00 +25°C° 0 mm 1 m/s 756 mm Hg 61%
20:00 +24°C° 0 mm 1 m/s 756 mm Hg 63%
21:00 +24°C° 0 mm 1 m/s 756 mm Hg 58%
22:00 +24°C° 0 mm 2 m/s 756 mm Hg 53%
23:00 +24°C° 0 mm 2 m/s 756 mm Hg 48%

26 Ottobre, Lunedi

Tempo Temperatura Precipitazioni Vento Pressione Umidità
00:00 +24°C° 0 mm 2 m/s 756 mm Hg 46%
01:00 +24°C° 0 mm 2 m/s 756 mm Hg 43%
02:00 +24°C° 0 mm 2 m/s 756 mm Hg 41%
03:00 +24°C° 0 mm 1 m/s 756 mm Hg 37%
04:00 +24°C° 0 mm 1 m/s 756 mm Hg 33%
05:00 +24°C° 0 mm 1 m/s 756 mm Hg 29%
06:00 +26°C° 0 mm 1 m/s 757 mm Hg 26%
07:00 +28°C° 0 mm 1 m/s 757 mm Hg 23%
08:00 +30°C° 0 mm 1 m/s 757 mm Hg 20%
09:00 +31°C° 0 mm 2 m/s 757 mm Hg 20%
10:00 +34°C° 0 mm 2 m/s 757 mm Hg 19%
11:00 +36°C° 0 mm 3 m/s 757 mm Hg 18%
12:00 +35°C° 0 mm 3 m/s 757 mm Hg 21%
13:00 +35°C° 0 mm 3 m/s 756 mm Hg 23%
14:00 +35°C° 0 mm 3 m/s 756 mm Hg 26%
15:00 +31°C° 0 mm 3 m/s 756 mm Hg 34%
16:00 +29°C° 0 mm 2 m/s 756 mm Hg 42%
17:00 +26°C° 0 mm 2 m/s 756 mm Hg 50%
18:00 +25°C° 0 mm 2 m/s 756 mm Hg 49%
19:00 +25°C° 0 mm 1 m/s 756 mm Hg 48%
20:00 +24°C° 0 mm 1 m/s 756 mm Hg 47%
21:00 +24°C° 0 mm 1 m/s 756 mm Hg 44%
22:00 +24°C° 0 mm 1 m/s 756 mm Hg 42%
23:00 +24°C° 0 mm 2 m/s 756 mm Hg 39%

27 Ottobre, Martedi

Tempo Temperatura Precipitazioni Vento Pressione Umidità
00:00 +24°C° 0 mm 2 m/s 756 mm Hg 40%
01:00 +23°C° 0 mm 2 m/s 756 mm Hg 40%
02:00 +23°C° 0 mm 2 m/s 756 mm Hg 41%
03:00 +21°C° 0 mm 2 m/s 756 mm Hg 45%
04:00 +22°C° 0 mm 1 m/s 756 mm Hg 49%
05:00 +22°C° 0 mm 1 m/s 756 mm Hg 52%
06:00 +23°C° 0 mm 2 m/s 756 mm Hg 55%
07:00 +25°C° 0 mm 2 m/s 757 mm Hg 57%
08:00 +26°C° 0 mm 2 m/s 757 mm Hg 59%
09:00 +27°C° 0 mm 2 m/s 757 mm Hg 56%
10:00 +28°C° 0 mm 3 m/s 757 mm Hg 54%
11:00 +30°C° 0 mm 3 m/s 757 mm Hg 51%
12:00 +29°C° 0 mm 3 m/s 757 mm Hg 53%
13:00 +29°C° 0 mm 3 m/s 757 mm Hg 54%
14:00 +29°C° 0 mm 3 m/s 757 mm Hg 56%
15:00 +27°C° 0 mm 3 m/s 757 mm Hg 62%
16:00 +26°C° 0 mm 3 m/s 757 mm Hg 67%
17:00 +24°C° 0 mm 2 m/s 757 mm Hg 73%
18:00 +23°C° 0 mm 2 m/s 757 mm Hg 76%
19:00 +23°C° 0 mm 2 m/s 758 mm Hg 78%
20:00 +21°C° 0 mm 2 m/s 758 mm Hg 81%
21:00 +21°C° 0 mm 2 m/s 758 mm Hg 83%
22:00 +21°C° 0 mm 2 m/s 758 mm Hg 85%
23:00 +21°C° 0 mm 2 m/s 758 mm Hg 87%
Mostrare altro

Abbiamo bisogno del tuo consenso

Meteoprog e i nostri fornitori di servizi possono memorizzare e accedere a dati personali come cookie, identificatori di dispositivi o altre tecnologie simili sul tuo dispositivo e possono elaborare tali dati per personalizzare i contenuti e gli annunci, nonché fornire funzionalità dei social media e analizzarne il traffico.

  • Archiviare e/o accedere alle informazioni sul tuo dispositivo

    Cookie, identificatori di dispositivi o altre informazioni possono essere memorizzati o resi accessibili sul tuo dispositivo per le finalità sopra indicate.

  • Annunci e contenuti personalizzati, misurazione di annunci e contenuti, approfondimenti sul pubblico e sviluppo di prodotti

    Gli annunci e i contenuti possono essere personalizzati in base a un profilo. È possibile aggiungere più dati per personalizzare meglio annunci e contenuti. È possibile misurare il rendimento degli annunci e dei contenuti. È possibile ricavare informazioni sul pubblico che ha visto gli annunci e i contenuti. Tali dati possono essere utilizzati per sviluppare o migliorare l'esperienza, i sistemi e il software dell'utente.

Cliccando su “Accetto”, acconsenti all'uso di cookie, identificatori di dispositivo, web beacon o altre tecnologie simili. Puoi modificare le impostazioni nel browser del tuo dispositivo.

Per determinati scopi, è possibile fare affidamento su interessi legali, piuttosto che sul consenso. Puoi approfondire questo argomento consultando la nostra Informativa sulla privacy e sui cookie.